Regional Weather Roundup
Issued by NWS Upton, NY

Current Version | Previous Version | Text Only | Print | Product List | Glossary Off
Versions: 1 2 3 4 5 6 7 8 9 10 11 12 13 14 15 16 17 18 19 20 21 22 23 24 25 26 27 28
000 ASUS41 KOKX 312005 RWROKX REGIONAL WEATHER ROUNDUP NATIONAL WEATHER SERVICE NEW YORK NY 400 PM EDT FRI OCT 31 2014 NOTE: "FAIR" INDICATES FEW OR NO CLOUDS BELOW 12,000 FEET WITH NO SIGNIFICANT WEATHER AND/OR OBSTRUCTIONS TO VISIBILITY. NYZ071-072-176-178-NJZ106-104-312100- NEW YORK CITY METRO AREA CITY SKY/WX TMP DP RH WIND PRES REMARKS CENTRAL PARK CLOUDY 54 36 50 E8 29.92F LAGUARDIA APRT CLOUDY 55 37 50 E15 29.90F KENNEDY INTL CLOUDY 54 40 59 NE12 29.91F NEWARK/LIBERTY CLOUDY 53 37 54 N10 29.90F BRNX BOT. GARD N/A 54 36 50 NE6 29.92R TETERBORO CLOUDY 55 36 48 NE5 29.89F $$ NYZ177-179-078>081-312100- LONG ISLAND NEW YORK CITY SKY/WX TMP DP RH WIND PRES REMARKS FARMINGDALE CLOUDY 54 43 66 NE7 29.90F ISLIP CLOUDY 54 43 66 NE12 29.88F SHIRLEY CLOUDY 55 44 66 VRB6 29.90F WESTHAMPTON CLOUDY 55 45 68 NE9 29.90F MONTAUK POINT N/A 57 45 64 VRB5 29.92F $$ NYZ052-065-067-312100- HUDSON VALLEY CITY SKY/WX TMP DP RH WIND PRES REMARKS WHITE PLAINS CLOUDY 53 34 48 E7 29.89F NEWBURGH MOSUNNY 52 37 58 NE7 29.91F MONTGOMERY MOSUNNY 51 34 52 NE7 29.90F POUGHKEEPSIE PTSUNNY 54 36 50 N9 29.91F ALBANY PTSUNNY 52 34 50 CALM 29.96S $$ NJZ001-105-106-008-010-013-015-019>022-104-312100- NEW JERSEY CITY SKY/WX TMP DP RH WIND PRES REMARKS NEWARK/LIBERTY CLOUDY 53 37 54 N10 29.90F TETERBORO CLOUDY 55 36 48 NE5 29.89F CALDWELL CLOUDY 52 34 50 E7 29.90F MORRISTOWN NOT AVBL SOMERVILLE CLOUDY 52 34 50 NE5 29.89F SUSSEX CLOUDY 52 35 52 NE8 29.90F ANDOVER N/A 49 36 61 VRB5 29.90F TRENTON CLOUDY 50 34 54 NE8 29.89F MILLVILLE CLOUDY 53 39 59 NE12 29.86F ATLANTIC CITY CLOUDY 54 43 66 N10 29.86F WRIGHTSTOWN CLOUDY 52 39 62 N10 29.87F TOMS RIVER CLOUDY 52 39 62 N8 29.88F BELMAR CLOUDY 52 37 58 N9 29.88F $$ PAZ047>061-062-071-312100- EASTERN PENNSYLVANIA CITY SKY/WX TMP DP RH WIND PRES REMARKS PHILADELPHIA PTSUNNY 54 36 50 N8 29.89F ALLENTOWN CLOUDY 52 34 50 E8 29.89F SCRANTON MOSUNNY 54 28 36 N6 29.87F $$ CTZ002-004>006-009-010-012-RIZ004-006-007-MAZ004-011-015-312100- SOUTHERN NEW ENGLAND IN CT CITY SKY/WX TMP DP RH WIND PRES REMARKS BRADLEY INTL CLOUDY 52 38 58 N6 29.94F HARTFORD CLOUDY 52 39 61 VRB6 29.94F DANBURY CLOUDY 53 34 48 VRB6 29.92F WTRBRY/OXFORD CLOUDY 50 36 57 NE6 29.92F BRIDGEPORT CLOUDY 55 40 56 NE10 29.91F MERIDEN CLOUDY 53 39 59 N6 29.93F NEW HAVEN CLOUDY 56 40 55 NE9 29.91F CHESTER FAIR 54 37 54 NE7 29.93S GROTON CLOUDY 53 42 66 NE12 29.92S WILLIMANTIC CLOUDY 54 38 54 NE9 29.94S IN RI CITY SKY/WX TMP DP RH WIND PRES REMARKS PROVIDENCE CLOUDY 52 40 63 NE14 29.97R BLOCK ISLAND CLOUDY 55 45 67 E12G21 29.92S WESTERLY CLOUDY 53 41 63 NE8 29.94R IN MA CITY SKY/WX TMP DP RH WIND PRES REMARKS BOSTON CLOUDY 50 38 63 NE12 30.00R WORCESTER CLOUDY 47 37 68 E5 29.95F WESTFIELD CLOUDY 51 37 58 N7 29.95F PROVINCETOWN CLOUDY 52 0 11 E13 29.99R NANTUCKET CLOUDY 55 46 71 NE13 29.92F $$ ANZ330-335-338-340-345-350-353-355-312100- COASTAL MARINE OBSERVATIONS STATION/POSITION TIME SKY/WX TEMP WIND PRES VSBY WAVE AIR SEA DIR/SP/G HT/PER (UTC) (F) (DEG/KT/KT) (MB) (MI) (FT/S) NY HARB ENTRANCE 2000 55 60 40/ 14/ 16 1011.9 2/ 5 4S FIRE IS 2000 62 N/A 2/ 4 20S FIRE ISLAND 2000 56 62 60/ 14/ 16 1011.3 2/ 4 23SW MTP 2000 N/A 2/ 5 HUDSON CANYON 2000 58 64 50/ 17/ 21 1010.0 3/ 4 EXECUTION ROCKS 2000 55 60 50/ 14/ 17 N/A WESTERN LI SOUND 2000 55 70/ 14/ 16 N/A 1/ 3 CENTRAL LI SOUND 1900 54 61 60/ 12/ 14 N/A 1/ 2 EASTERN LI SOUND 1900 56 61 60/ 14/ 17 N/A ROBBINS REEF 2000 53 70/ 14/ 16 1011.1 $$ >>>>>>>>>>>>>>>>>>>>>>>>>>>> KEY <<<<<<<<<<<<<<<<<<<<<<<<<<< > < > SKY/WX - SKY CONDITION/PRESENT WEATHER < > TMP - TEMPERATURE IN FAHRENHEIT < > DP - DEWPOINT IN FAHRENHEIT < > RH - RELATIVE HUMIDITY IN PERCENT < > WIND - DIRECTION AND SPEED IN MPH < > PRES - MEAN SEA LEVEL PRESSURE IN INCHES OF HG < > WCI - WIND CHILL INDEX < > VSB - VISIBILITY IN MILES < > HX - HEAT INDEX < > TC - TEMPERATURE IN CELSIUS < > VRB - VARIABLE WIND DIRECTION < > < >>>>>>>>>>>>>>>>>>>>>>>>>>>> KEY <<<<<<<<<<<<<<<<<<<<<<<<<<<

USA.gov is the U.S. government's official web portal to all federal, state and local government web resources and services.